Temperature
19 19 19 18 18 18 18 18 18 18 18 18 18 18 17 17 17 17 17 17 17 16 16 16 16 16 15 15 15 15 16 16 16 16 16 16 16 16 16 16 16 16 16
18 18 18 18 18 17 18 18 18 18 18 18 18 18 18 17 17 17 17 17 16 16 16 16 16 15 15 15 15 15 15 16 16 16 16 16 16 16 16 16 16 16 15
18 18 18 18 18 17 18 18 18 18 18 18 18 17 17 17 17 17 17 16 16 16 16 16 15 15 15 15 15 15 15 15 15 16 16 16 16 16 16 16 16 16 16
19 18 18 18 18 18 18 18 18 18 18 18 17 17 17 17 17 17 17 16 16 16 16 15 15 15 15 15 15 15 15 15 15 15 16 16 16 16 16 16 16 16 16
19 18 18 18 18 18 18 18 18 18 17 17 17 17 17 17 17 17 17 16 16 16 16 15 15 15 15 15 15 15 15 15 15 15 15 16 16 16 16 15 15 15 15
19 19 18 18 18 18 18 18 17 17 17 17 17 17 17 17 17 17 17 16 16 16 16 16 15 15 15 15 15 15 15 15 15 15 15 15 15 16 16 16 15 15 15
19 19 18 18 18 18 18 18 18 17 17 17 17 17 17 17 17 17 17 17 16 16 16 16 16 15 15 15 15 15 15 15 15 15 15 15 15 15 15 15 15 15 15
19 19 19 18 18 18 18 18 18 18 18 17 17 17 17 17 17 17 17 17 17 16 16 16 16 16 15 15 15 15 15 15 15 15 15 15 15 15 15 15 15 15 15
19 19 19 19 18 18 18 18 18 18 18 17 17 17 17 17 17 17 17 17 17 17 16 16 16 16 16 16 16 15 15 15 15 15 15 15 15 15 15 15 15 15 15
20 20 19 19 19 19 18 18 18 18 18 18 17 17 17 17 17 17 17 17 17 17 17 16 16 16 16 16 16 16 16 16 16 15 15 15 15 15 15 15 15 15 14
20 20 20 20 19 19 19 18 18 18 18 18 18 17 18 17 17 17 17 17 17 17 17 17 16 16 16 16 16 16 16 16 16 16 16 16 15 15 15 15 15 15 14
21 20 20 20 19 19 19 19 19 18 18 18 18 18 18 17 17 17 17 17 17 17 17 17 17 17 16 16 16 16 16 16 16 16 16 16 16 16 15 15 15 15 15
20 20 20 20 20 19 19 19 19 19 19 18 18 18 18 18 18 18 17 17 17 17 17 17 17 17 17 16 16 16 16 16 16 16 16 16 15 16 15 15 15 15 14
20 20 20 20 20 20 19 19 19 19 19 18 18 18 18 18 18 18 18 18 17 17 17 17 16 16 16 16 16 16 16 16 16 16 16 15 15 15 15 15 15 15 14
20 20 20 20 20 20 19 19 19 19 19 19 18 18 18 18 18 18 18 17 17 17 17 16 16 16 16 16 16 16 16 16 16 15 15 15 15 15 14 14 14 14 14
19 19 19 19 20 20 19 19 19 19 19 18 18 18 18 18 18 17 17 17 17 17 16 16 16 16 16 16 16 16 15 15 15 15 15 15 14 14 14 14 14 14 13
18 19 19 19 19 19 19 19 18 18 18 18 17 17 17 17 17 17 17 17 16 16 16 16 16 15 15 15 15 15 15 14 14 14 14 14 14 14 14 13 13 13 13
18 18 18 19 18 18 18 18 18 18 17 17 17 17 17 17 16 16 16 16 16 15 15 15 15 15 14 14 14 14 14 14 14 13 13 13 13 13 13 13 13 13 13
17 17 17 17 17 17 17 17 17 17 16 16 16 16 16 16 15 15 15 15 14 14 14 14 14 14 13 13 13 13 13 13 13 13 12 12 12 12 12 12 12 12 12
16 16 16 16 16 16 16 16 16 15 15 15 14 14 15 14 14 14 14 14 13 13 13 13 13 13 13 13 13 12 12 12 12 12 12 11 11 11 11 11 11 11 11
15 15 15 15 15 15 15 15 15 14 14 13 14 14 13 13 13 13 13 13 13 13 12 12 12 12 12 12 12 11 11 11 11 11 11 11 10 10 10 10 10 10 10
14 15 15 14 14 14 15 14 13 13 13 13 13 13 12 12 12 12 12 12 12 12 11 11 11 11 11 11 10 10 10 10 10 10 9 9 9 9 9 9 9 9 9
14 14 14 13 13 13 13 13 12 12 12 12 12 12 12 11 11 11 11 11 11 11 11 10 10 10 10 9 9 9 9 9 9 8 8 8 8 8 8 8 8 8 8
13 13 13 13 12 12 12 12 12 11 11 11 11 11 11 11 11 11 11 10 10 10 10 10 9 9 9 9 9 8 8 8 8 8 8 7 7 7 7 7 7 7 7
12 13 12 12 12 11 11 11 11 11 11 11 11 11 10 10 10 10 10 10 9 9 9 9 9 8 8 8 7 7 7 7 7 6 6 6 6 6 6 6 6 6 6
12 12 12 11 11 11 11 11 11 11 11 10 10 10 10 10 10 10 9 9 9 8 8 8 8 7 7 7 6 6 6 6 5 5 5 5 5 5 5 5 5 5 5
Wind_Speed
7 8 8 10 11 10 11 12 11 9 9 8 8 7 6 5 4 4 7 8 8 8 7 4 4 4 4 3 3 3 3 2 2 3 3 4 3 2 1 1 1 1 3
8 8 8 8 11 12 12 13 12 11 9 8 6 5 6 4 4 3 5 7 8 7 6 5 4 4 4 4 4 3 3 2 2 3 3 3 4 4 2 1 1 2 2
13 11 11 10 10 12 13 13 12 10 9 8 6 6 5 4 3 3 3 4 8 8 8 7 5 4 4 4 3 4 4 2 2 2 4 3 3 2 3 2 1 1 1
11 11 11 11 11 11 10 10 11 10 9 9 9 10 7 6 5 5 4 4 6 7 8 7 6 5 4 4 3 4 3 4 2 2 2 2 3 3 0 3 3 2 1
12 12 12 12 11 10 10 10 11 10 9 9 10 9 7 5 4 4 6 5 4 5 7 7 6 5 4 4 4 4 4 3 3 2 1 2 3 2 3 1 3 3 3
12 10 9 9 8 8 9 11 11 10 10 10 9 10 10 8 7 6 6 5 3 3 5 6 6 5 4 4 4 4 4 3 3 2 2 2 2 1 2 2 2 2 3
12 11 11 11 10 10 11 11 12 11 10 10 9 10 10 10 10 8 7 6 4 4 5 5 5 4 4 5 4 4 4 3 3 3 2 2 2 2 3 3 1 1 3
12 13 13 12 11 12 12 12 13 11 11 11 9 8 9 7 6 7 7 7 6 6 7 6 6 6 7 6 4 3 3 3 3 3 3 2 1 2 3 3 3 1 2
13 13 12 12 12 12 12 13 13 11 11 11 9 8 8 8 7 7 6 6 6 6 7 8 7 7 7 6 6 4 4 4 4 3 3 2 2 1 2 2 4 4 1
12 13 13 12 12 12 12 12 12 13 11 11 10 9 8 8 8 7 7 7 7 6 7 8 8 8 7 7 6 4 4 5 5 4 4 3 3 2 1 2 2 4 5
12 13 12 12 12 11 12 12 12 11 11 11 10 9 8 7 7 7 7 7 6 7 8 9 9 9 8 8 7 7 6 7 6 5 6 6 5 4 3 2 2 3 4
9 11 11 10 10 11 12 12 12 12 11 10 9 9 8 7 7 7 7 7 7 7 8 8 9 9 9 9 9 9 8 8 8 7 7 7 6 6 5 4 4 4 4
8 9 9 10 10 11 11 12 12 12 10 10 9 9 8 8 8 8 7 7 7 7 7 8 9 9 9 9 10 9 9 9 9 9 9 8 7 7 6 6 6 5 5
9 9 9 9 9 9 10 11 11 10 10 9 9 8 8 8 8 7 7 7 7 8 8 8 9 9 9 9 9 9 9 9 9 9 9 9 9 9 9 8 8 7 6
8 8 8 8 8 8 8 8 8 8 9 8 8 8 7 6 6 5 5 5 5 6 6 6 7 7 7 8 9 9 10 9 9 9 9 10 11 13 11 9 8 8 8
7 7 7 7 7 7 7 7 7 6 7 7 6 5 4 4 3 2 2 2 2 3 3 4 5 5 6 8 11 9 8 8 8 8 8 9 10 12 14 15 14 12 10
8 7 7 6 6 6 7 7 7 7 8 7 5 5 5 5 3 3 2 1 1 0 1 2 2 3 3 4 5 8 5 5 5 6 6 7 6 7 7 9 12 13 15
10 8 8 8 7 8 8 9 10 11 10 9 7 6 5 5 4 4 3 1 1 1 1 1 0 0 1 0 2 2 2 1 2 3 3 4 4 4 4 5 6 7 8
10 9 9 10 10 10 10 13 12 12 11 10 8 6 6 6 6 5 4 2 2 3 3 2 2 2 3 4 2 2 1 1 2 3 3 2 2 5 6 4 5 7 8
12 11 11 13 12 10 11 14 13 12 11 9 8 7 7 7 6 5 4 3 3 4 5 5 5 5 5 7 6 5 3 3 3 3 4 4 5 7 7 4 5 8 9
13 13 13 13 10 9 13 14 12 10 8 7 7 7 7 6 6 5 4 4 5 6 6 6 5 6 6 8 8 7 3 2 2 2 3 4 7 9 10 8 6 11 11
13 13 13 12 9 9 13 13 10 7 7 8 8 7 6 6 6 6 6 5 6 6 5 5 5 4 4 6 6 7 5 3 1 2 3 5 10 12 13 10 12 15 12
12 11 13 12 9 9 10 11 7 7 8 8 7 6 6 5 5 5 5 4 4 3 3 3 3 2 2 3 5 6 5 5 2 3 7 10 13 13 10 12 14 12 7
11 10 12 12 9 8 8 8 7 7 8 8 6 5 5 6 5 4 4 3 3 2 2 2 2 1 2 3 3 3 4 5 5 5 8 11 11 9 9 10 9 6 6
9 9 10 10 8 8 8 7 7 8 8 7 6 5 5 5 4 4 3 3 1 2 3 1 1 1 1 3 4 3 4 4 5 5 4 4 5 6 6 7 7 7 6
10 10 10 9 8 8 7 6 6 7 7 6 6 5 4 4 4 4 5 7 5 7 7 5 4 1 1 5 7 8 8 9 7 3 3 5 5 6 7 8 8 7 7
Wind_Direction
164 159 157 163 160 163 160 156 159 155 148 143 141 140 139 139 135 145 138 130 123 116 110 103 93 99 104 108 104 93 71 43 63 68 27 1 359 20 45 116 122 149 175
158 162 160 169 168 169 168 164 163 161 158 153 148 144 139 145 145 140 136 137 129 123 119 113 108 106 102 89 81 85 84 34 60 112 92 30 355 346 351 6 125 122 130
171 171 171 178 173 175 174 168 166 163 158 149 132 124 108 100 105 129 141 148 138 127 124 124 117 110 115 112 98 93 100 78 24 84 138 142 202 294 331 331 339 136 132
171 174 175 179 179 178 173 165 165 163 158 152 149 149 150 157 175 169 164 156 149 141 136 129 122 116 117 121 118 105 106 110 66 18 37 146 153 148 294 329 328 314 236
174 177 179 180 178 174 171 169 166 164 163 161 161 157 156 162 157 153 155 158 156 158 153 142 131 128 126 130 117 109 102 110 117 95 64 59 59 88 135 232 312 329 302
176 177 180 173 173 174 173 169 167 171 172 167 166 165 165 160 156 163 167 169 168 171 169 158 151 149 142 145 141 131 124 123 119 113 108 120 119 132 138 169 243 278 289
174 174 176 177 179 179 177 173 174 178 176 171 171 173 170 167 170 172 175 172 175 188 193 170 163 160 167 167 158 147 149 148 142 146 142 141 157 167 149 140 172 278 300
175 179 183 182 183 180 177 176 178 179 176 175 178 176 170 171 176 176 176 181 189 196 190 181 179 179 178 176 166 163 174 168 166 172 166 160 179 161 159 157 144 76 331
180 183 184 182 182 181 179 179 178 176 178 177 178 181 177 176 182 184 183 188 194 197 189 185 184 185 182 178 170 182 198 188 194 201 200 197 221 196 177 166 156 152 189
182 183 185 185 184 181 179 178 176 179 178 180 185 190 187 186 186 182 190 194 196 194 185 188 189 189 187 182 179 188 200 193 205 206 208 219 225 227 195 179 176 164 169
182 184 185 184 180 177 177 176 177 177 180 184 188 188 187 189 189 192 201 200 197 192 190 191 191 193 196 192 190 200 199 204 216 216 211 224 221 222 223 204 190 184 171
177 179 178 176 177 181 182 181 181 184 186 186 186 189 190 191 198 207 210 203 199 198 196 193 194 200 202 199 200 209 209 208 217 222 219 227 226 226 226 220 224 220 203
165 164 167 172 178 183 184 185 187 190 187 182 183 188 191 194 203 211 212 206 202 202 198 196 201 206 205 204 209 212 215 214 218 219 220 226 222 229 228 225 229 232 231
163 162 167 172 173 177 179 182 185 185 181 177 180 189 198 202 207 207 208 209 204 203 203 204 207 208 207 208 211 213 218 222 224 223 223 224 220 225 226 229 228 229 234
153 158 162 163 161 164 168 172 175 176 172 168 177 193 201 205 209 211 215 216 214 215 211 210 216 213 212 218 215 216 220 223 231 233 231 231 228 226 225 229 225 224 232
142 141 142 147 153 156 158 159 160 163 153 157 171 177 175 178 182 182 180 179 209 222 213 215 216 216 228 233 221 216 223 222 227 237 243 246 244 242 238 238 233 223 229
120 116 119 131 138 138 135 133 133 119 110 111 110 119 127 123 123 114 95 104 207 190 210 221 207 215 236 236 225 220 222 228 234 240 248 260 263 255 253 254 253 247 242
105 96 97 101 101 102 101 99 97 96 96 95 93 97 107 110 96 84 75 44 39 79 91 62 87 123 3 181 198 191 185 225 261 266 266 266 287 313 303 286 281 274 267
101 94 91 93 91 92 96 94 88 87 86 83 80 78 88 89 80 74 60 43 45 35 34 37 52 60 27 35 60 124 91 35 351 357 9 13 3 356 1 340 312 302 295
96 93 87 85 84 83 90 89 85 82 80 79 75 70 71 78 77 73 66 49 52 44 47 51 53 63 54 49 60 80 71 47 18 5 5 22 17 359 357 336 308 297 294
97 94 90 85 82 84 89 88 85 84 86 85 79 71 70 76 76 66 61 61 62 58 58 62 54 54 55 54 62 70 68 57 18 349 329 320 331 328 322 310 277 273 281
100 98 95 89 81 81 89 88 83 82 80 77 71 65 60 65 72 69 60 55 59 61 59 64 55 47 46 54 56 58 56 48 30 317 306 307 317 317 312 305 289 288 290
105 100 100 94 83 80 89 93 88 81 76 71 66 59 52 52 59 68 65 56 57 66 61 72 73 50 23 21 33 33 25 17 357 299 304 309 311 313 307 300 301 303 295
110 109 105 101 93 85 85 91 89 82 76 68 58 52 51 46 47 56 68 75 71 73 67 67 74 54 6 353 352 353 350 347 339 326 317 316 314 311 302 304 307 301 290
113 110 109 108 106 96 87 84 83 82 73 63 54 49 49 52 48 44 53 77 85 127 123 118 120 92 6 315 326 345 338 331 321 325 326 329 329 327 322 317 311 308 309
117 113 110 109 105 99 92 83 80 81 76 60 46 42 41 40 43 47 42 43 62 66 82 100 103 70 334 337 350 349 345 340 339 351 327 318 315 313 313 314 313 310 307
Height
1499 1501 1503 1506 1508 1511 1515 1518 1521 1525 1529 1531 1534 1536 1540 1542 1545 1546 1547 1548 1549 1550 1551 1552 1553 1554 1555 1556 1558 1559 1560 1562 1563 1564 1565 1566 1566 1567 1567 1568 1568 1568 1568
1499 1501 1502 1505 1506 1510 1513 1517 1520 1524 1527 1530 1533 1536 1539 1542 1544 1545 1546 1547 1548 1549 1550 1551 1552 1553 1554 1556 1557 1558 1560 1561 1562 1564 1565 1565 1567 1567 1567 1567 1567 1567 1568
1497 1500 1502 1504 1506 1509 1512 1515 1518 1522 1525 1529 1532 1535 1538 1541 1543 1544 1546 1547 1548 1549 1550 1551 1552 1553 1554 1555 1556 1558 1559 1560 1562 1563 1564 1565 1565 1566 1567 1567 1567 1567 1567
1496 1498 1500 1502 1505 1507 1511 1514 1517 1521 1524 1528 1531 1533 1536 1538 1541 1543 1545 1546 1548 1549 1550 1551 1551 1552 1553 1554 1556 1557 1559 1560 1561 1562 1563 1564 1564 1565 1566 1567 1567 1567 1567
1494 1497 1499 1500 1503 1506 1509 1512 1516 1519 1523 1527 1530 1533 1536 1538 1541 1543 1545 1546 1547 1548 1549 1550 1551 1552 1553 1554 1555 1557 1558 1559 1560 1561 1562 1563 1563 1564 1564 1565 1566 1566 1566
1493 1496 1498 1500 1503 1506 1508 1511 1514 1518 1522 1525 1529 1532 1535 1537 1540 1542 1544 1545 1547 1548 1549 1550 1551 1551 1552 1553 1554 1556 1557 1558 1559 1560 1561 1562 1562 1563 1563 1564 1564 1565 1565
1491 1494 1497 1499 1502 1504 1506 1509 1512 1516 1519 1523 1527 1530 1533 1536 1538 1541 1542 1544 1546 1547 1548 1549 1550 1551 1552 1553 1554 1555 1556 1557 1558 1559 1560 1561 1562 1562 1562 1563 1563 1563 1563
1489 1492 1495 1497 1500 1502 1504 1507 1511 1514 1518 1521 1525 1529 1532 1535 1538 1540 1541 1543 1545 1546 1548 1549 1550 1550 1551 1552 1553 1554 1555 1556 1557 1558 1559 1560 1560 1561 1561 1561 1562 1561 1562
1488 1490 1493 1496 1498 1500 1503 1506 1510 1513 1517 1520 1523 1527 1531 1533 1536 1539 1541 1542 1544 1545 1546 1548 1549 1550 1550 1551 1552 1552 1553 1554 1555 1556 1557 1558 1558 1559 1559 1559 1560 1561 1560
1486 1489 1492 1494 1497 1499 1502 1505 1509 1512 1515 1519 1522 1525 1528 1532 1535 1537 1539 1541 1542 1544 1545 1546 1547 1548 1549 1550 1550 1551 1552 1552 1553 1554 1555 1555 1556 1557 1557 1557 1557 1557 1558
1484 1487 1490 1493 1495 1498 1501 1504 1507 1510 1514 1517 1520 1524 1527 1530 1533 1535 1537 1539 1541 1542 1543 1544 1545 1546 1547 1547 1548 1549 1550 1550 1551 1551 1552 1553 1554 1554 1555 1555 1555 1555 1555
1482 1485 1488 1491 1494 1497 1500 1503 1506 1509 1512 1516 1519 1522 1525 1528 1531 1533 1535 1537 1539 1540 1541 1542 1543 1544 1544 1545 1545 1546 1547 1547 1548 1549 1549 1550 1551 1551 1551 1552 1552 1552 1552
1481 1484 1486 1489 1492 1495 1498 1501 1504 1507 1511 1514 1517 1521 1524 1526 1529 1531 1533 1535 1536 1537 1538 1539 1540 1540 1541 1541 1542 1543 1544 1544 1545 1545 1546 1546 1547 1547 1548 1548 1548 1548 1548
1480 1482 1484 1487 1490 1493 1496 1499 1502 1506 1509 1512 1515 1518 1521 1524 1526 1528 1530 1532 1533 1533 1534 1535 1536 1536 1537 1537 1538 1539 1539 1540 1541 1541 1542 1542 1543 1543 1543 1543 1543 1544 1543
1480 1481 1483 1486 1488 1491 1495 1498 1501 1504 1508 1510 1513 1516 1519 1521 1523 1525 1526 1528 1529 1529 1530 1531 1531 1531 1532 1533 1533 1534 1535 1535 1536 1536 1537 1537 1538 1538 1538 1538 1538 1538 1537
1479 1481 1483 1485 1488 1490 1493 1496 1500 1503 1506 1508 1511 1513 1516 1518 1520 1521 1523 1524 1524 1525 1525 1525 1526 1526 1527 1527 1528 1529 1529 1530 1531 1531 1532 1532 1532 1532 1532 1532 1532 1532 1531
1479 1480 1482 1484 1487 1490 1493 1495 1498 1501 1504 1506 1508 1511 1513 1515 1517 1518 1520 1520 1520 1520 1520 1520 1521 1522 1522 1523 1523 1524 1524 1524 1525 1525 1525 1526 1526 1525 1525 1525 1525 1524 1524
1479 1481 1482 1484 1487 1490 1492 1495 1497 1500 1502 1504 1507 1509 1511 1512 1514 1515 1516 1516 1516 1516 1515 1516 1517 1517 1518 1518 1519 1519 1519 1519 1519 1519 1519 1519 1518 1518 1517 1517 1516 1516 1515
1480 1482 1484 1485 1487 1490 1493 1495 1497 1500 1502 1504 1506 1508 1509 1510 1511 1511 1512 1513 1513 1512 1512 1513 1513 1513 1513 1514 1514 1514 1514 1513 1514 1513 1513 1513 1512 1511 1510 1509 1507 1506 1506
1483 1485 1487 1488 1490 1492 1494 1496 1498 1501 1503 1505 1507 1508 1508 1509 1509 1510 1510 1511 1510 1510 1510 1511 1510 1510 1510 1510 1511 1510 1510 1509 1508 1508 1508 1507 1506 1505 1504 1502 1500 1498 1497
1485 1487 1489 1491 1493 1495 1497 1498 1500 1502 1504 1506 1507 1508 1508 1509 1509 1509 1509 1509 1509 1509 1509 1509 1509 1508 1508 1508 1508 1507 1506 1505 1504 1503 1502 1501 1500 1499 1497 1495 1493 1491 1488
1488 1490 1491 1493 1496 1498 1499 1500 1502 1505 1506 1507 1508 1508 1509 1509 1509 1509 1509 1509 1509 1509 1509 1508 1508 1507 1507 1506 1505 1503 1502 1501 1499 1498 1497 1495 1493 1491 1490 1487 1485 1483 1480
1490 1492 1494 1496 1499 1501 1502 1503 1506 1507 1508 1509 1509 1510 1510 1510 1510 1509 1509 1509 1509 1508 1508 1507 1506 1505 1504 1503 1502 1500 1498 1497 1495 1493 1491 1489 1487 1484 1482 1480 1477 1475 1472
1493 1496 1497 1499 1502 1505 1506 1507 1508 1510 1510 1510 1511 1511 1511 1511 1510 1510 1509 1508 1508 1507 1506 1505 1504 1503 1502 1500 1498 1496 1494 1492 1490 1488 1486 1483 1481 1478 1476 1473 1471 1468 1466
1497 1499 1501 1503 1505 1507 1509 1510 1511 1511 1511 1512 1512 1512 1512 1511 1510 1509 1509 1507 1507 1506 1505 1503 1502 1500 1498 1496 1495 1492 1490 1487 1485 1482 1480 1478 1475 1472 1469 1467 1464 1462 1459
1499 1502 1504 1506 1508 1509 1510 1512 1513 1513 1512 1512 1512 1512 1511 1511 1510 1509 1508 1506 1505 1504 1502 1501 1499 1497 1496 1493 1491 1489 1486 1483 1481 1478 1475 1472 1470 1467 1464 1461 1458 1456 1453